Powrót do katalogu

COSMOS 1275 DEB

AktywnyPO
NORAD 13807·DEBRIS·🇷🇺 Russia

Wystrzelony Jun 4, 1981 z Plesetsk Cosmodrome

Loading…

Następne Przeloty (najbliższe 24 godziny)

TLE

ŚwieżeSource: Space-Track

Epoka: Sep 14, 2026, 03:39 UTC

1 13807U 81053HB  26257.15231096  .00002442  00000-0  89570-3 0  9999
2 13807  82.9474 312.8739 0013463 130.6118 229.6243 14.32434474992380

Śledź COSMOS 1275 DEB w czasie rzeczywistym z AllMySat

Download on the App Store